Tracking 19484 objects as of 19-Jan-2019
HD Live streaming from Space Station
objects crossing your sky now

SKYSAT C12

Track SKYSAT C12 now!
10-day predictions


NORAD ID: 43797
Int'l Code: 2018-099AR
Perigee: 576.9 km
Apogee: 598.3 km
Inclination: 97.8 °
Period: 96.3 minutes
Semi major axis: 6958 km
RCS: Unknown
Launch date: December 3, 2018
Source: United States (US)
Launch site: AIR FORCE WESTERN TEST RANGE (AFWTR)
aabbcc
Your satellite tracking list
Your tracking list is empty




NASA's NSSDC Master Catalog

Two Line Element Set (TLE):
1 43797U 18099AR  19018.17907826 -.00000407  00000-0 -31326-4 0  9998
2 43797  97.7621  91.9216 0015371 114.2921 245.9907 14.95619824  6774
Source of the keplerian elements: AFSPC